GFSFLT2_prec_radar_072.txt.gz
Reflectivity
-20 -20 -3 -14 -5 20 4 16 -10 -6 30 38 31 29 24 32 8 -3 11 -20 -20 -20 0 -20 -20 -20 -20 -20 -20 -20 -20 -20
-20 -20 -4 -20 31 32 -13 -20 -20 -20 35 37 40 31 30 31 37 29 -4 -20 -20 3 -20 -20 -20 -20 -20 -20 -20 -20 -20 -20
-20 -20 -20 -20 -20 -20 -20 14 -20 -20 -20 -4 37 37 36 34 38 35 16 -20 -20 -20 -20 -20 -20 -20 -20 -20 -20 -20 -20 -16
-20 -20 -20 -20 -20 17 -20 -20 -20 -20 0 -17 24 34 38 34 28 33 36 -12 -20 -20 -20 -20 -20 -20 -20 -20 -20 -20 0 -18
-20 -20 -20 -20 -20 4 13 -14 2 18 -7 -20 4 24 36 27 19 29 32 -17 -20 -20 -20 -20 -20 -20 -20 -20 -20 -20 -18 2
-20 -15 -1 -20 -20 -17 4 14 13 11 4 -17 -17 -6 23 1 13 33 31 -20 -20 -20 -20 -20 -20 -20 -20 -16 -20 16 -19 -20
-20 -17 5 11 -20 -20 6 13 8 9 10 -19 -12 13 12 -20 11 25 26 -16 -20 -20 -20 -20 -20 -20 -20 3 -12 1 -20 -20
-7 3 8 -18 5 -10 10 11 17 11 11 -7 16 -10 -11 1 7 28 25 -7 -2 -19 -20 -20 -20 -20 -20 -20 -18 -17 -20 -20
-5 -3 0 -2 -18 -2 10 10 12 13 22 21 -2 -20 -20 -0 14 25 -8 6 -17 -20 -20 -20 -20 -20 -20 -20 -4 -20 -20 -20
-17 8 -2 12 -20 -3 -20 10 13 -0 23 21 20 17 -3 5 18 24 -19 -20 -20 -20 -20 -20 -20 -20 -20 -19 -15 3 1 -20
4 9 6 6 -20 -10 -3 -20 12 0 5 8 25 14 22 12 24 16 -13 -20 -20 -20 -20 -20 -20 -20 -20 -20 -18 5 -20 -20
-20 9 5 -15 -20 -6 -20 -6 7 7 -18 12 34 30 13 30 31 20 -20 -20 -20 -20 -20 -20 -20 -20 -20 -20 -18 3 -18 -20
-20 -17 -18 -4 -16 9 -20 -20 8 -16 3 25 38 30 34 28 3 -19 -20 -20 -20 -20 -20 -20 -20 -20 -20 -20 -20 -13 7 -20
-20 -20 -19 -19 -20 6 -18 -20 3 -20 5 22 31 33 34 29 3 -19 -20 -20 -20 -19 -20 -17 -20 -5 -12 -11 -20 -20 -20 -8
-20 -20 -20 -18 -13 19 3 -20 -20 -20 17 7 24 27 30 31 30 16 -20 -15 -18 -20 -9 -18 -13 1 -19 -12 -20 -20 0 4
-20 -10 7 -13 6 -6 -20 -20 -20 -6 -16 -7 17 -11 11 24 28 30 18 -13 7 -18 6 -20 -20 -20 -20 -20 -20 -20 -20 -20
-20 -18 -5 -20 -3 5 -15 -0 -20 -7 -13 -20 6 21 19 17 24 26 22 22 15 12 6 -20 -20 -20 -20 -20 -20 -20 -20 -17
-20 -20 -2 -12 -20 -8 1 12 4 -20 -18 -19 -7 15 30 17 -2 29 24 -5 13 8 -6 -10 -5 -20 -20 -17 -6 -18 1 14
-20 -20 -17 -2 -20 -20 5 -5 4 -0 -15 -20 4 4 19 15 13 18 25 12 22 24 11 10 8 6 5 -7 7 8 6 21
-20 -20 -20 -15 -20 -20 -0 -8 -20 -20 9 -14 -20 -12 -1 0 3 12 26 25 21 24 21 15 25 17 -6 9 5 7 4 2

GFSFLT2_prec_radar_078.txt.gz
Reflectivity
-20 -20 -19 -20 -19 -20 -20 -20 -20 -20 -1 28 41 42 38 35 34 31 8 38 -20 -20 -20 -20 -20 -18 -20 -20 -20 -20 -20 -19
-20 -20 -19 -1 5 -8 -20 -20 -20 -20 -20 -14 8 14 21 47 38 21 32 1 -20 -20 -20 -20 -20 -20 -20 -20 -20 -20 -20 -20
-5 -20 -11 -20 5 6 -20 -20 -20 -20 -20 -20 -20 -20 9 26 42 35 23 32 25 2 -13 -20 -20 -20 -20 -20 -20 -20 -20 -20
-11 -20 -11 -10 -19 15 -0 2 -20 -20 0 -20 -20 -20 -20 10 4 8 -20 28 33 32 28 26 -20 2 -20 -20 -20 -20 -20 -20
-20 -6 -9 2 2 -13 10 11 4 9 5 -20 -20 -20 -19 -20 -20 -20 -10 27 28 33 -11 -20 19 -16 -20 -20 -20 -20 -20 -20
-20 -20 -20 -4 1 -20 -12 7 10 7 10 -19 -20 -20 -17 -20 -20 -20 -11 28 21 34 27 20 20 -18 -20 -20 -20 -20 -20 -20
-20 -13 -14 -20 -20 -20 -20 3 -18 -13 -6 1 -20 -17 -9 6 9 8 -11 27 29 37 25 -5 24 -20 -20 -20 -20 -20 -20 -20
-20 -20 -20 -6 -3 -2 0 -18 -2 -2 -3 3 2 1 -12 -3 0 9 20 27 31 31 -5 4 1 -20 -20 -20 -20 -20 -20 -20
-20 -20 -20 -4 -11 1 1 -16 -17 1 -8 3 3 -9 -3 1 -7 15 25 22 26 33 25 -14 -20 -20 -17 -20 -20 -20 -20 -20
-20 -20 -2 1 -6 -9 -4 -9 9 0 3 5 18 -4 26 6 3 13 22 25 23 32 -7 23 20 -20 -20 -20 -20 -20 -20 -20
-20 -20 -12 -11 -13 -1 -7 -12 3 4 0 -0 2 7 24 11 17 21 14 27 32 33 -20 -20 14 -20 -20 -20 -20 -20 -20 -20
-20 -19 -6 -7 -1 -2 -2 3 1 -4 -2 -10 -5 5 16 23 27 -18 -8 21 27 27 -10 9 -20 -20 -20 -20 -20 -20 -20 -20
-20 -16 -11 1 7 3 6 16 3 -2 5 -3 7 26 41 37 30 -17 26 15 29 20 3 19 6 -20 -20 13 7 -3 2 -20
-20 -20 -13 -17 -6 -14 -5 -5 13 5 8 1 -0 14 16 37 37 30 30 13 28 27 22 -2 18 -20 -4 6 6 3 3 1
-20 -20 -20 -7 -20 0 8 -0 7 15 13 6 -10 20 -10 26 35 35 25 24 25 16 18 5 -8 -3 -20 -18 10 -9 -15 2
-20 -20 -20 -20 -20 -0 -13 -17 -4 2 -6 -19 5 2 16 24 28 27 30 27 26 27 -1 -19 -17 6 -7 -20 -20 -20 -15 10
-20 -20 -20 -20 -20 -20 -9 4 -19 7 -3 3 7 -2 2 30 31 34 30 31 25 28 16 -17 -18 -20 -20 5 -20 -19 -20 -20
-20 -20 -20 -20 -20 -4 -18 -18 -9 16 7 11 11 -10 15 30 35 26 30 26 22 -12 -3 -2 -13 -20 -20 -20 -18 -5 -16 -20
-20 -20 -20 -20 -20 -16 2 7 0 -20 -8 -20 1 -3 15 13 27 21 26 27 26 13 8 8 -0 -19 -19 -2 15 -2 2 -17
-20 -20 -20 -3 -20 -17 7 -20 -20 -20 1 19 17 -1 2 7 18 30 22 16 24 -3 -19 -0 19 6 10 7 -8 -4 14 1

GFSFLT2_prec_radar_081.txt.gz
Reflectivity
-20 -20 -20 -20 -20 -20 -20 -20 -20 -20 -14 -20 -11 12 33 42 34 33 29 34 -0 17 -20 -20 -20 -20 -20 -20 -20 -20 8 15
-20 -20 -20 -20 -20 -20 -20 -20 -20 -20 -20 -20 -20 -20 36 24 43 43 36 28 36 -6 31 -20 -19 -20 -20 -20 -20 -20 -12 -20
-20 -11 -20 -20 -20 -10 -20 -20 -20 -20 -20 -20 -20 -20 -20 -14 12 39 41 38 24 25 30 -20 25 -20 -20 -20 -20 -20 -20 -20
-11 -20 -20 -20 -20 6 1 3 -20 -20 -20 -6 -20 1 -19 2 -3 30 31 28 21 31 24 27 18 9 6 -16 -20 -20 -20 -20
-20 -6 -20 -20 -20 3 6 6 -16 6 11 13 -8 14 1 -20 15 14 5 12 -3 27 23 27 1 10 -19 -20 -19 10 -20 -20
-20 -20 -20 -20 -20 9 -19 -20 -9 10 11 5 26 23 6 -20 4 3 1 19 -2 7 26 26 31 18 -17 -20 8 -20 -20 -20
-20 -20 -20 -20 -13 -9 -1 -20 -1 -4 10 -6 25 10 5 -20 -20 -12 -17 -18 -19 21 31 30 24 -5 -20 -20 -11 -20 -20 -20
-20 -20 -20 -20 -7 -20 -12 -18 1 -8 11 2 12 4 6 1 -20 -4 7 -20 -17 28 35 33 12 -19 3 -18 -20 -20 -20 -20
-20 -20 -20 -20 -20 -19 -11 -16 -1 -19 -11 -18 23 19 18 18 15 9 -1 -17 27 27 36 35 -9 -20 -15 -12 -20 -20 -20 -20
-20 -20 -20 -20 -20 -20 -20 6 -3 -1 2 -15 11 20 22 -20 -11 4 -1 13 33 32 33 34 8 -20 -8 -20 -20 -20 -20 -20
-20 -20 -20 -20 -20 -20 -3 1 -2 -1 2 -2 18 1 18 22 14 -2 11 9 29 31 33 27 12 -20 -15 -20 -20 -20 -20 -20
-20 -20 -20 -20 -20 -20 -13 -18 1 -11 3 -5 6 20 4 27 4 -20 17 4 28 35 33 27 -20 -20 -17 -20 -1 -20 -20 -20
-20 -20 -20 -20 -20 -20 -20 0 -6 7 6 1 -3 -3 22 25 29 21 19 17 20 31 32 27 29 -20 -20 -20 -11 2 -20 -20
-20 -20 -20 -20 -20 -20 -20 -4 8 3 8 7 -7 -4 9 -20 12 24 26 5 -1 29 29 31 -16 -20 -12 -20 10 7 9 -20
-20 -20 -20 -20 -20 -20 -20 -12 11 13 18 20 -12 -4 11 23 35 26 36 -3 27 25 29 28 16 6 -20 -18 9 -4 -6 8
-20 -20 -20 -20 -20 -20 -13 -2 1 7 -1 4 -0 13 20 -11 -14 18 34 27 29 22 28 29 28 -4 23 -7 -20 -20 -20 12
-20 -20 -20 -20 -20 -20 -20 -20 7 -20 4 8 6 2 -7 4 14 31 30 31 28 25 24 31 25 8 -3 -11 -20 -20 -20 -8
-20 -20 -20 -20 -20 -20 -20 -20 1 -11 7 6 -0 -2 -4 22 23 26 32 28 28 27 29 29 22 19 -20 -20 -14 -5 -20 -20
-20 -20 -20 -20 -20 -20 -20 -20 5 -20 3 2 5 -9 -16 9 28 31 30 34 31 28 28 26 -1 -11 -17 -13 -14 -17 -20 -20
-20 -20 -20 -20 -20 -20 -20 -20 -18 6 9 2 -9 -6 -8 -19 6 21 20 27 25 21 22 8 5 -1 -7 -15 -20 -20 -2 19

GFSFLT2_prec_radar_084.txt.gz
Reflectivity
-20 -20 -20 -20 -20 -20 -20 -20 -20 -4 6 11 -18 -1 2 -12 -6 30 46 40 30 35 10 -12 -20 -20 -20 -20 -20 -20 -20 18
-20 -20 -20 -20 -20 -20 -20 -20 -20 -20 -20 -20 -20 -20 -20 -20 -16 30 42 47 34 36 33 4 -17 -20 -16 -20 -20 -20 -20 25
-20 -20 -20 -20 -20 -20 -20 -20 -20 -20 -20 -20 -20 -20 -20 -20 -20 -13 17 38 38 27 32 26 0 -8 -2 23 -20 -20 -12 -20
-20 -20 -20 -20 -20 -20 -20 -20 -20 -20 -20 -20 -20 -20 -20 -20 24 -20 -16 33 35 31 25 -14 28 -20 -20 -20 -5 -20 -20 -18
-20 -20 -20 -20 -20 -20 -20 -20 -20 -20 -20 -20 -4 -20 -20 -20 -20 -20 -20 18 29 33 28 18 -20 -15 -20 -20 -20 -20 -20 -7
-20 -20 -20 -20 -20 -20 -20 -20 -20 -20 -20 -20 -20 -19 -20 -20 -20 -20 -20 -19 16 15 -19 -6 -19 -20 -20 -20 -20 -20 7 -20
-20 -20 -20 -20 -20 -20 -20 -9 -20 -20 -17 -20 -20 -20 -17 -15 -20 -20 -20 -20 -18 6 -16 34 17 -18 -8 -20 -20 3 -20 -20
-20 -20 -20 -20 -20 -20 -20 -20 -9 -20 -17 -5 -20 -20 -8 -20 -20 -20 -20 -20 -20 -20 4 10 29 26 31 -20 -20 -20 -20 -20
-20 -20 -20 -20 -20 -20 -20 -20 -20 -20 -20 -20 -15 5 8 -20 -20 -20 -20 -20 -11 -20 -19 30 35 32 31 -20 -20 -20 -20 -20
-20 -20 -20 -20 -20 -20 -20 -20 -17 -20 -5 -10 0 -12 11 9 -20 -20 -4 -20 -20 -20 -3 27 31 33 27 -17 -8 -20 -20 -20
-20 -20 -20 -20 -20 -20 -20 -20 3 -15 -10 13 7 -3 -20 -7 -9 -6 24 -20 -20 -19 26 29 38 34 8 -10 -1 -20 -20 -20
-20 -20 1 -20 -20 -20 -20 -7 -3 -17 -20 -20 -9 3 -20 -11 15 -3 9 -16 -1 7 32 35 27 32 6 -20 -20 -20 -20 -20
-20 -20 -20 -20 -20 -20 -20 -20 4 -20 -15 -20 9 -4 -20 -20 -20 -11 -2 -4 -17 18 30 31 32 29 18 -20 -20 -20 -20 -20
-20 -20 -20 -20 -20 -20 -20 -20 -20 -20 -12 -12 -1 -20 -16 6 7 -7 -20 11 1 -14 34 23 35 26 -8 -13 -0 -3 -15 -20
-20 -12 -20 -20 -20 -20 -20 -20 -20 -20 -16 10 -20 -20 -20 3 13 10 -4 23 30 15 19 26 27 31 -18 4 -10 -19 -6 -20
-20 -20 -20 -20 -20 -20 -20 -20 -20 -20 -20 -2 -13 12 17 17 -20 -13 -20 14 21 24 24 28 30 30 14 4 19 -13 -20 -20
-20 -20 -20 -20 -20 -20 -20 -20 -20 -20 -20 5 10 10 -20 21 -20 -20 -20 18 26 26 23 26 24 32 17 7 11 -20 -20 -20
-20 -20 -18 -20 -20 -20 -20 -20 -20 -20 -16 7 2 -20 -19 -10 -15 -20 -6 16 30 24 27 28 27 22 20 22 7 -19 4 -15
-20 -20 -10 -20 -20 -20 -20 -20 -20 -15 -8 -2 -4 -20 -20 -20 -0 -19 4 25 20 26 31 28 28 18 13 24 9 -20 -20 -20
-20 -20 -20 -20 -20 -20 -20 -20 -20 -20 -12 -20 -20 -20 -18 -15 -20 -5 22 31 24 22 26 29 26 24 19 5 -17 0 4 3

GFSFLT2_prec_radar_090.txt.gz
Reflectivity
-20 -20 -20 -20 -20 -20 -20 -20 -20 -20 -20 -20 -20 -20 -20 -20 -20 -20 -20 -20 -20 -13 11 31 33 35 -10 -20 -20 -20 -20 -17
-20 -20 -20 -20 -20 -20 -20 -20 -20 -20 -20 -20 -20 -20 -20 -20 -20 -20 -20 -20 -20 -20 7 18 35 37 14 -20 -20 -20 -19 -20
-20 -20 -20 -20 -20 -20 -20 -20 -20 -20 -20 -20 -20 -20 -20 -20 -20 -20 -20 -20 -20 -20 -20 34 45 37 33 -20 -12 -20 -5 27
-20 -20 -20 -20 -20 -20 -20 -20 -20 -20 -20 -20 -20 -20 -20 -20 -20 -7 25 -20 -20 -20 -20 -1 41 34 33 -20 -20 -20 -20 -20
-20 -20 -20 -20 -20 -20 -20 -20 -20 -20 -20 -20 -20 -20 -20 -20 -20 -20 -20 -20 -20 -20 -20 6 37 30 36 19 -16 -20 -14 25
-20 -20 -20 -20 -20 -20 -20 -20 -20 -20 -20 -20 -20 -20 -20 -19 -20 -20 -20 -20 -20 -20 -20 13 32 30 34 16 -20 -20 -20 -20
-20 -20 -20 -20 -20 -20 -20 -20 -20 -20 -20 -20 -20 -20 -20 -20 -20 -20 -20 -20 -20 -20 -20 4 33 35 30 -20 -20 -20 -20 -20
-20 -20 -20 -20 -20 -20 -20 -20 -20 -20 -20 -20 -20 -20 -20 -20 -20 -20 -20 -20 -20 -20 -20 -13 5 33 30 3 -20 -20 -20 -10
-20 -20 -20 -20 -20 -20 -20 -20 -20 -20 -20 -20 -20 -20 -20 -20 -20 -20 -20 -20 -8 -20 -20 -20 -0 20 34 23 17 -20 -20 -20
-20 -20 -20 -20 -20 -20 -20 -20 -20 -20 -20 -20 -20 -20 -20 -20 -20 -20 -20 -1 -16 -20 -20 -20 -5 -12 24 22 24 25 13 -20
-20 -20 -20 -20 -17 -19 -20 -20 -20 -20 -20 -20 -20 -20 -20 -20 -20 -20 -20 -20 -4 15 -15 -20 -20 -3 -20 13 30 17 -20 -20
-20 -20 -20 -20 4 4 -11 -4 -17 -20 -20 -20 -20 -20 -20 -20 -15 -20 -20 -2 -13 -6 -14 14 -20 15 -20 19 37 6 -9 -9
-20 -20 -20 -20 -17 2 -4 1 -20 -20 -19 -20 -20 -20 -20 7 -20 -20 -20 -20 27 8 20 19 -20 15 -12 31 35 19 20 21
-20 -20 -20 -16 -14 4 -16 -19 -20 -20 -20 -20 -20 -20 -10 5 -18 -20 -20 -10 16 8 13 -20 -20 8 17 28 32 21 22 13
-20 -20 -20 -17 -20 -7 4 -19 -20 -20 -18 -20 -20 -20 -20 -20 -7 0 14 22 19 19 -20 -20 -20 5 9 35 24 11 15 -6
-20 -20 -13 -9 -20 -6 -20 -20 -20 -20 -20 -20 -20 -20 -20 6 -20 -20 -13 11 5 2 -14 -13 -16 -14 23 30 23 26 32 25
-20 -18 0 -20 -20 -0 -20 -20 -20 -20 -20 -20 -20 -20 -20 -20 -20 -1 -6 -20 -20 12 12 -20 -14 5 6 34 29 32 28 -8
-20 -8 -20 -20 -10 -6 -20 -20 -20 -20 -20 -20 -20 -20 -20 -20 4 -11 -14 -9 -15 3 8 -13 14 31 11 18 26 25 23 21
-1 -13 -20 -14 -17 -19 -19 -20 -20 -20 -20 -20 -20 -20 -19 -13 8 -20 -20 2 17 -7 -11 4 16 28 25 15 19 26 27 20
16 28 32 -7 -14 -1 2 -20 -20 -20 -20 -20 -20 -20 -12 -6 -16 12 -17 -20 -20 -1 18 17 30 26 15 22 30 27 21 -6

GFSFLT2_prec_radar_093.txt.gz
Reflectivity
-20 -20 -20 -20 -20 -20 -20 -20 -20 -20 -20 -20 -20 -20 -20 -20 -20 -20 -20 -20 -20 -20 -20 -20 -17 9 22 22 25 -20 -20 -20
-20 -20 -20 -20 -20 -20 -20 -20 -20 -20 -20 -20 -20 -20 -20 -20 -20 -20 -20 -20 -20 -20 -20 21 19 14 35 24 34 -19 5 -20
-20 -20 -20 -20 -20 -20 -20 -20 -20 -20 -20 -20 -20 -20 -20 -20 -20 -20 -20 -20 -20 -20 -18 -20 -20 -18 30 32 33 11 -20 6
-20 -20 -20 -20 -20 -20 -20 -20 -20 -20 -20 -20 -20 -20 -20 -20 -20 -20 -20 -20 -20 -4 10 -20 -20 -20 14 36 31 26 31 -14
-20 -20 -20 -20 -20 -20 -20 -20 -20 -20 -20 -20 -20 -20 -20 -20 -20 -20 -20 -20 -20 -20 -20 -20 -20 -19 10 37 34 -0 29 30
-20 -20 -20 -20 -20 -20 -20 -20 -20 -20 -20 -20 -20 -20 -18 -20 -20 -20 -20 -20 -20 -20 -20 -20 -20 -20 9 31 36 -6 -20 27
-20 -20 -20 -20 -20 -20 -20 -20 -18 -20 -20 -20 -20 -15 10 -20 -20 -20 -13 -20 -20 -20 -20 -20 -20 -20 20 37 37 30 29 12
-20 -20 -20 -20 -20 -20 -20 -20 -20 -20 -20 -20 -20 -20 2 8 -7 10 -3 -20 -20 -20 -20 -20 -20 -8 35 36 34 31 -20 -8
-20 -20 -20 -20 -20 -3 20 -19 -20 -20 -20 -20 -20 -18 -16 -20 1 2 8 -1 -20 -20 -20 -20 -20 -15 24 38 35 27 -20 -6
-20 -20 -20 -13 -3 -11 -20 -20 -20 -20 -20 -20 -20 -20 -20 -20 -16 -20 -10 -20 -15 -20 -20 -20 -20 2 -3 37 33 26 20 17
-20 -20 -20 -16 -13 -15 -20 -20 -20 -20 -20 -20 -20 -20 -20 -20 -20 -14 -8 8 9 -8 -20 -20 -20 -20 3 21 19 28 32 25
-20 -20 -20 8 -15 -3 -20 -20 -20 -20 -20 -20 -20 -20 -20 -20 -20 -20 -16 6 -7 7 -20 -20 -20 -20 -20 7 7 21 23 29
-20 -20 -20 -20 -8 -20 -20 -20 -20 -19 -18 -20 -20 -20 -20 -20 8 -20 -20 -20 -2 -2 -1 -20 -20 -4 17 9 -0 -2 14 28
-20 -20 -20 -20 9 -2 -20 -20 -20 16 15 -20 -20 -20 -20 -20 -20 -13 18 -20 -20 -7 6 19 -20 12 9 -2 -1 30 24 28
-20 -20 -20 -20 9 2 -20 -20 -17 36 20 -6 -16 -20 -20 -20 -4 1 -17 3 5 0 13 19 -20 9 -3 -14 4 16 28 25
-20 -20 -20 -9 -7 -20 -20 -20 -1 -10 15 -12 -20 -20 -20 2 0 8 6 -19 9 2 -2 6 21 -20 -20 -20 -2 25 26 22
-20 -17 -20 -20 -20 -20 -20 -20 6 -13 -6 -20 -20 -20 -20 -20 7 -3 18 -4 -7 15 15 0 13 15 -20 -20 2 9 29 32
-20 -20 -20 -20 -20 -20 -20 -20 -1 -5 12 -16 -20 -20 -20 -20 -13 -3 5 3 -15 -4 16 -2 8 -20 14 -20 -8 14 25 35
-20 -20 -20 -20 -20 -20 -17 -20 -20 -19 -5 -13 -20 -20 -20 -8 -12 11 16 13 2 9 9 20 -8 -18 -20 -20 -15 26 35 37
26 7 -20 -20 -20 -1 -12 3 -15 -15 -10 -20 -20 -20 -20 -20 2 15 14 13 15 11 20 3 -11 2 -12 8 29 27 32 29

GFSFLT2_prec_radar_099.txt.gz
Reflectivity
-20 -20 -20 -20 -20 -20 -20 -20 -20 -20 -20 -20 -20 -20 -20 -20 -20 -20 -20 -5 -20 -20 -20 -20 -20 -20 -20 -20 -20 -20 -20 3
-20 -15 -20 -5 -6 -20 -20 -20 -20 -20 -20 -20 -20 -20 -20 -20 -20 -20 -20 -20 -20 2 -20 -20 -20 -20 -20 -20 -20 23 -10 14
-20 -20 -20 -19 -19 -20 -20 -20 -20 -20 -20 -20 -20 -20 -20 -20 -20 -20 -20 -20 -20 -20 -20 -20 -20 -14 -19 -20 3 -10 -20 22
-20 -20 -17 -13 -20 -20 -1 -19 -20 -18 -20 -10 -20 -20 -20 -20 -20 -20 -20 -20 -20 -6 4 -20 8 -10 -20 -20 -20 -20 -20 24
-20 -20 -20 7 -17 -19 -19 -20 -20 -20 -20 -17 5 2 -20 -20 -0 -10 -14 -20 -4 4 -15 -9 4 -20 -20 -20 -20 -20 -20 -15
-20 -20 -20 -20 9 -20 -19 -20 -20 10 -8 -9 -20 -19 1 -20 -20 -10 -16 -20 -20 -8 1 3 -20 -20 -20 -20 -20 -20 -20 3
-20 -20 -20 -20 -20 -16 -1 -20 -16 -20 -1 -20 -20 -20 -19 -20 -20 -20 -20 -20 -20 -11 -1 1 1 -20 1 -20 -20 -20 -20 7
-20 -20 -20 -20 -15 -20 -18 -20 -20 -11 -4 -20 -20 -9 1 -4 -5 -20 -20 -20 -20 -15 22 -1 -4 -4 -0 -4 -5 -15 -20 19
-20 -20 -20 -20 -20 -20 -15 -20 -20 -20 -15 -16 4 4 -7 -11 6 -20 -18 -20 -17 -20 -20 -20 -1 14 8 5 -4 -20 -20 27
-20 -20 -20 -20 -20 -3 -19 -15 -20 -20 -12 7 -16 -15 -8 2 0 14 -20 -20 -16 2 -17 -13 -20 3 -19 0 16 -20 -6 27
-20 -20 -20 -20 -20 -20 -18 32 -13 -20 -20 -20 -20 -20 -20 -7 -5 -20 -20 -20 -20 5 -11 -19 -7 -6 -1 8 3 -19 3 36
-20 -20 -20 -20 -20 -6 5 -13 -1 -20 -12 -20 -20 -20 -20 7 -3 -14 -18 -16 -5 4 -16 -6 -14 -4 9 0 6 -1 13 35
-20 -20 -20 -20 -20 -7 0 -20 -20 -14 -15 -19 -20 -20 -20 -17 -20 -4 -20 -20 -20 -5 -9 2 0 -13 -20 -20 -20 2 22 24
-20 -20 -20 -20 -20 -20 -20 -20 -2 -3 3 -1 -16 -20 -20 -20 -10 -3 -20 -20 -1 2 -2 -20 -2 -4 -20 -12 -4 -11 18 9
-20 -20 -20 -20 -20 -10 6 9 11 13 9 -12 -4 -7 -17 13 10 -20 -20 -20 -20 -14 1 -13 13 7 -19 -5 4 -5 4 13
-20 -20 -20 -20 -20 -3 5 -17 -14 -14 -20 -6 0 -18 2 33 21 18 -4 -4 -20 0 -4 -4 12 1 -14 -4 -20 -20 15 -0
-20 -20 -20 -20 -20 -15 5 2 1 3 -11 -20 -14 6 -6 4 33 40 31 -0 -20 -2 -20 -4 13 12 8 2 -0 -11 13 -17
-20 -18 -20 -20 -19 -16 8 3 5 9 -5 -13 -2 -18 -15 5 20 29 20 5 6 7 -2 2 10 12 9 4 -2 5 -4 -20
2 -1 -20 -20 -20 2 12 8 10 10 -3 -20 -20 -12 -14 -1 23 20 -4 -16 -3 3 -11 1 16 10 7 7 11 23 5 7
9 10 7 22 -20 15 9 3 12 12 10 -16 -20 -20 2 29 -14 -18 6 -20 -20 -11 -3 19 8 1 8 -10 1 18 22 16